Voltar ao catálogo

STARLINK-34071

AtivoComunicaçõesVLEO
NORAD 63910·PAYLOAD·🇺🇸 United States

Lançado May 10, 2025 de Cape Canaveral Space Force Station

Loading…

Próximas Passagens (próximas 24 horas)

TLE

AtualizadoSource: CelesTrak SupGP

Época: Sep 15, 2026, 02:29 UTC

1 63910C 25095W   26258.10395833 -.00037847  00000+0 -13711-2 0  2588
2 63910  42.9998 186.7215 0001274 275.0055  89.0935 15.27591675    13

Acompanhe STARLINK-34071 em tempo real com AllMySat

Download on the App Store